WA6MEM Weather Reports


time (UTC)temp
C
wind
direction
speed
KPH
gust
KPH
rain 1hr
cm
rain 24hr
cm
rain mn
cm
humidity
%
barometer
mb
20260901203538 22 244 4.8 0.0 0.00 0.00 0.03 72 1013.6
20260901203044 22 168 4.8 0.0 0.00 0.00 0.03 72 1013.6
20260901202537 22 202 4.8 0.0 0.00 0.00 0.03 75 1013.9
20260901202038 22 213 4.8 0.0 0.00 0.00 0.03 74 1013.9
20260901201537 22 234 4.8 0.0 0.00 0.00 0.03 74 1013.9
20260901201036 22 159 4.8 0.0 0.00 0.00 0.03 75 1014.1
20260901200534 21 123 4.8 0.0 0.00 0.00 0.03 75 1014.1
20260901200043 21 218 4.8 0.0 0.00 0.00 0.03 74 1014.1
20260901195536 21 255 4.8 0.0 0.00 0.00 0.03 76 1014.2
20260901195038 21 185 4.8 0.0 0.00 0.00 0.03 74 1014.2
20260901194532 21 221 4.8 0.0 0.00 0.00 0.03 74 1014.2
20260901194032 21 190 4.8 0.0 0.00 0.00 0.03 76 1014.3
20260901193531 21 180 4.8 0.0 0.00 0.00 0.03 76 1014.3
20260901193031 21 165 4.8 0.0 0.00 0.00 0.03 76 1014.3
20260901192530 21 153 4.8 0.0 0.00 0.00 0.03 77 1014.3
20260901192032 21 148 4.8 0.0 0.00 0.00 0.03 77 1014.3
20260901191528 21 209 4.8 0.0 0.00 0.00 0.03 78 1014.3
20260901191030 21 233 4.8 0.0 0.00 0.00 0.03 79 1014.4
20260901190526 21 161 4.8 0.0 0.00 0.00 0.03 78 1014.4
20260901190026 21 135 4.8 0.0 0.00 0.00 0.03 79 1014.4
20260901185527 20 167 4.8 0.0 0.00 0.00 0.03 79 1014.3
20260901185025 20 180 4.8 0.0 0.00 0.00 0.03 79 1014.3
20260901184531 20 179 4.8 0.0 0.00 0.00 0.03 79 1014.3
20260901184024 20 188 4.8 0.0 0.00 0.00 0.03 79 1014.4
20260901183523 20 159 3.2 0.0 0.00 0.00 0.03 79 1014.4
20260901183022 20 155 3.2 0.0 0.00 0.00 0.03 79 1014.4
20260901182521 20 167 3.2 0.0 0.00 0.00 0.03 80 1014.3
20260901182021 20 192 3.2 0.0 0.00 0.00 0.03 80 1014.3
20260901181520 20 173 4.8 0.0 0.00 0.00 0.03 81 1014.3
20260901181018 20 186 4.8 0.0 0.00 0.00 0.03 81 1014.4
20260901180518 20 196 4.8 0.0 0.00 0.00 0.03 81 1014.4
20260901180018 20 161 4.8 0.0 0.00 0.00 0.03 81 1014.4
20260901175517 20 208 3.2 0.0 0.00 0.00 0.03 82 1014.5
20260901175017 20 202 3.2 0.0 0.00 0.00 0.03 83 1014.5
20260901174516 19 146 4.8 0.0 0.00 0.00 0.03 83 1014.5
20260901174018 19 161 4.8 0.0 0.00 0.00 0.03 83 1014.4
20260901173514 19 177 3.2 0.0 0.00 0.00 0.03 84 1014.4
20260901173013 19 173 3.2 0.0 0.00 0.00 0.03 84 1014.4
20260901172513 19 198 3.2 0.0 0.00 0.00 0.03 85 1014.4
20260901172012 18 202 3.2 0.0 0.00 0.00 0.03 87 1014.4
20260901171517 18 132 3.2 0.0 0.00 0.00 0.03 88 1014.4
20260901171009 18 180 3.2 0.0 0.00 0.00 0.03 89 1014.2
20260901170509 18 128 3.2 0.0 0.00 0.00 0.03 90 1014.2
20260901170007 17 90 1.6 0.0 0.00 0.00 0.03 92 1014.2
20260901165505 17 262 1.6 0.0 0.00 0.00 0.03 92 1014.2
20260901165008 17 198 3.2 0.0 0.00 0.00 0.03 93 1014.2
20260901164504 17 224 1.6 0.0 0.00 0.00 0.03 94 1014.2
20260901164002 17 126 1.6 0.0 0.00 0.00 0.03 95 1014.1
20260901163502 16 168 1.6 0.0 0.00 0.00 0.03 95 1014.1
20260901163106 16 159 1.6 0.0 0.00 0.00 0.03 96 1014.1
20260901162559 16 159 1.6 0.0 0.00 0.00 0.03 96 1014.2
20260901162058 16 215 1.6 0.0 0.00 0.00 0.03 96 1014.2
20260901161558 16 187 1.6 0.0 0.00 0.00 0.03 96 1014.2
20260901161057 16 213 1.6 0.0 0.00 0.00 0.03 96 1014.2
20260901160558 16 176 3.2 0.0 0.00 0.00 0.03 96 1014.2
20260901160057 16 207 3.2 0.0 0.00 0.00 0.03 96 1014.2
20260901155556 16 200 3.2 0.0 0.00 0.00 0.03 96 1014.1
20260901155056 16 169 1.6 0.0 0.00 0.00 0.03 97 1014.1
20260901154556 16 157 1.6 0.0 0.00 0.00 0.03 96 1014.1
20260901154055 16 155 1.6 0.0 0.00 0.00 0.03 96 1014.0
20260901153555 16 121 1.6 0.0 0.00 0.00 0.03 97 1014.0
20260901153105 16 157 1.6 0.0 0.00 0.00 0.03 97 1014.0
20260901152554 15 160 1.6 0.0 0.00 0.00 0.03 97 1014.0
20260901152054 15 187 1.6 0.0 0.00 0.00 0.03 97 1014.0
20260901151554 15 158 3.2 0.0 0.00 0.00 0.03 97 1014.0
20260901151054 15 157 1.6 0.0 0.00 0.00 0.03 97 1013.9
20260901150553 15 216 3.2 0.0 0.00 0.00 0.03 97 1013.9
20260901150053 15 187 1.6 0.0 0.00 0.00 0.03 97 1013.9
20260901145553 15 216 1.6 0.0 0.00 0.00 0.03 97 1013.5
20260901145053 15 210 1.6 0.0 0.00 0.00 0.03 97 1013.5
20260901144554 15 192 1.6 0.0 0.00 0.00 0.03 97 1013.5
20260901144052 15 179 1.6 0.0 0.00 0.00 0.03 97 1013.5
20260901143552 15 130 1.6 0.0 0.00 0.00 0.03 97 1013.5
20260901143054 15 204 1.6 0.0 0.00 0.00 0.03 97 1013.5
20260901142550 15 136 1.6 0.0 0.00 0.00 0.03 97 1013.4
20260901142052 15 73 1.6 0.0 0.00 0.00 0.03 97 1013.4
20260901141557 15 73 0.0 0.0 0.00 0.00 0.03 97 1013.4
20260901141051 15 152 0.0 0.0 0.00 0.00 0.03 97 1013.1
20260901140550 15 151 0.0 0.0 0.00 0.00 0.03 97 1013.1
20260901140051 15 152 0.0 0.0 0.00 0.00 0.03 97 1013.1
20260901135554 15 243 0.0 0.0 0.00 0.00 0.03 97 1013.0
20260901135050 15 207 0.0 0.0 0.00 0.00 0.03 97 1013.0
20260901134550 15 196 0.0 0.0 0.00 0.00 0.03 97 1013.0
20260901134048 15 196 0.0 0.0 0.00 0.00 0.03 97 1013.0
20260901133550 15 196 0.0 0.0 0.00 0.00 0.03 97 1013.0
20260901133048 14 132 0.0 0.0 0.00 0.00 0.03 97 1013.0
20260901132548 14 132 0.0 0.0 0.00 0.00 0.03 97 1012.9
20260901132047 14 119 0.0 0.0 0.00 0.00 0.03 96 1012.9
20260901131553 14 119 0.0 0.0 0.00 0.00 0.03 96 1012.9
20260901131047 14 119 0.0 0.0 0.00 0.00 0.03 96 1012.7
20260901130550 14 119 0.0 0.0 0.00 0.00 0.03 96 1012.7
20260901130047 15 119 0.0 0.0 0.00 0.00 0.03 96 1012.7
20260901125549 15 171 0.0 0.0 0.00 0.00 0.03 96 1012.6
20260901125046 15 171 0.0 0.0 0.00 0.00 0.03 96 1012.6
20260901124547 15 171 0.0 0.0 0.00 0.00 0.03 96 1012.6
20260901124046 15 171 0.0 0.0 0.00 0.00 0.03 96 1012.7
20260901123545 15 171 0.0 0.0 0.00 0.00 0.03 96 1012.7
20260901123047 15 171 0.0 0.0 0.00 0.00 0.03 96 1012.7
20260901122545 15 171 0.0 0.0 0.00 0.00 0.03 96 1012.6
20260901122044 15 223 0.0 0.0 0.00 0.00 0.03 97 1012.6
20260901121548 15 223 0.0 0.0 0.00 0.00 0.03 97 1012.6
20260901121044 15 223 0.0 0.0 0.00 0.00 0.00 96 1012.3
20260901120544 15 223 0.0 0.0 0.00 0.00 0.00 97 1012.3
20260901120046 15 223 0.0 0.0 0.00 0.00 0.00 97 1012.3
20260901115544 15 223 0.0 0.0 0.00 0.00 0.00 96 1012.2
20260901115044 15 223 0.0 0.0 0.00 0.00 0.00 96 1012.2
20260901114545 15 223 0.0 0.0 0.00 0.00 0.00 96 1012.2
20260901114043 14 223 0.0 0.0 0.00 0.00 0.00 96 1012.1
20260901113546 14 223 0.0 0.0 0.00 0.00 0.00 96 1012.1
20260901113042 14 223 0.0 0.0 0.00 0.00 0.00 96 1012.1
20260901112541 15 223 0.0 0.0 0.00 0.00 0.00 96 1012.2
20260901112043 15 223 0.0 0.0 0.00 0.00 0.00 96 1012.2
20260901111541 15 223 0.0 0.0 0.00 0.00 0.00 96 1012.2
20260901111040 15 223 0.0 0.0 0.00 0.00 0.00 96 1012.2
20260901110541 15 223 0.0 0.0 0.00 0.00 0.00 96 1012.2
20260901110040 15 223 0.0 0.0 0.00 0.00 0.00 96 1012.2
20260901105540 15 223 0.0 0.0 0.00 0.00 0.00 96 1012.5
20260901105043 15 223 0.0 0.0 0.00 0.00 0.00 96 1012.5
20260901104539 15 223 0.0 0.0 0.00 0.00 0.00 96 1012.5
20260901104040 15 223 0.0 0.0 0.00 0.00 0.00 96 1012.5
20260901103538 15 223 0.0 0.0 0.00 0.00 0.00 96 1012.5
20260901103046 15 223 0.0 0.0 0.00 0.00 0.00 96 1012.5
20260901102537 15 223 0.0 0.0 0.00 0.00 0.00 96 1012.5
20260901102037 15 223 0.0 0.0 0.00 0.00 0.00 96 1012.5
20260901101537 15 224 0.0 0.0 0.00 0.00 0.00 96 1012.5
20260901101036 15 242 0.0 0.0 0.00 0.00 0.00 96 1012.5
20260901100536 15 242 0.0 0.0 0.00 0.00 0.00 96 1012.5
20260901100036 15 242 1.6 0.0 0.00 0.00 0.00 96 1012.5
20260901095536 15 297 1.6 0.0 0.00 0.00 0.00 96 1012.5
20260901095036 15 280 1.6 0.0 0.00 0.00 0.00 96 1012.5
20260901094536 15 272 1.6 0.0 0.00 0.00 0.00 96 1012.5
20260901094038 15 260 1.6 0.0 0.00 0.00 0.00 96 1012.3
20260901093536 15 275 1.6 0.0 0.00 0.00 0.00 96 1012.3
20260901093035 15 275 3.2 0.0 0.00 0.00 0.00 96 1012.3
20260901092536 15 269 3.2 0.0 0.00 0.00 0.00 96 1012.4
20260901092035 15 275 3.2 0.0 0.00 0.00 0.00 96 1012.4
20260901091535 15 276 1.6 0.0 0.00 0.00 0.00 96 1012.4
20260901091038 15 283 1.6 0.0 0.00 0.00 0.00 96 1012.4
20260901090536 15 277 3.2 0.0 0.00 0.00 0.00 96 1012.4
20260901090034 15 271 3.2 0.0 0.00 0.00 0.00 96 1012.4
20260901085533 15 265 3.2 0.0 0.00 0.00 0.00 96 1012.5
20260901085033 15 294 1.6 0.0 0.00 0.00 0.00 96 1012.5
20260901084533 15 262 1.6 0.0 0.00 0.00 0.00 96 1012.5
20260901084036 15 262 0.0 0.0 0.00 0.00 0.00 96 1012.6
20260901083532 15 240 0.0 0.0 0.00 0.00 0.00 96 1012.6
20260901083033 15 240 0.0 0.0 0.00 0.00 0.00 96 1012.6
20260901082532 15 240 0.0 0.0 0.00 0.00 0.00 96 1012.6
20260901082031 15 240 0.0 0.0 0.00 0.00 0.00 96 1012.6
20260901081535 15 240 0.0 0.0 0.00 0.00 0.00 96 1012.6
20260901081031 15 240 0.0 0.0 0.00 0.00 0.00 96 1012.7
20260901080531 15 240 0.0 0.0 0.00 0.00 0.00 96 1012.7
20260901080031 15 190 0.0 0.0 0.00 0.00 0.00 96 1012.7
20260901075531 15 190 0.0 0.0 0.00 0.00 0.00 96 1012.6
20260901075030 15 190 1.6 0.0 0.00 0.00 0.00 95 1012.6
20260901074533 15 190 0.0 0.0 0.00 0.00 0.00 96 1012.6
20260901074028 15 287 0.0 0.0 0.00 0.00 0.00 96 1012.5
20260901073528 15 287 1.6 0.0 0.00 0.00 0.00 96 1012.5
20260901073028 15 309 1.6 0.0 0.00 0.00 0.00 96 1012.5
20260901072530 15 284 0.0 0.0 0.00 0.00 0.00 96 1012.5
20260901072026 15 284 0.0 0.0 0.00 0.00 0.00 96 1012.5
20260901071526 15 293 0.0 0.0 0.00 0.00 0.00 96 1012.5
20260901071028 15 204 0.0 0.0 0.00 0.00 0.00 96 1012.6
20260901070527 16 204 0.0 0.0 0.00 0.00 0.00 95 1012.6
20260901070029 16 162 0.0 0.0 0.00 0.00 0.00 96 1012.6
20260901065525 16 162 1.6 0.0 0.00 0.00 0.00 96 1012.5
20260901065029 16 178 1.6 0.0 0.00 0.00 0.00 96 1012.5
20260901064536 16 216 1.6 0.0 0.00 0.00 0.00 96 1012.5
20260901064024 16 168 1.6 0.0 0.00 0.00 0.00 96 1012.5
20260901063527 16 181 1.6 0.0 0.00 0.00 0.00 96 1012.5
20260901063028 16 155 1.6 0.0 0.00 0.00 0.00 96 1012.5
20260901062523 16 160 1.6 0.0 0.00 0.00 0.00 96 1012.1
20260901062028 16 196 1.6 0.0 0.00 0.00 0.00 96 1012.1
20260901061523 16 202 1.6 0.0 0.00 0.00 0.00 96 1012.1
20260901061023 16 205 1.6 0.0 0.00 0.00 0.00 95 1012.2
20260901060522 16 207 1.6 0.0 0.00 0.00 0.00 95 1012.2
20260901060022 16 195 1.6 0.0 0.00 0.00 0.00 95 1012.2
20260901055523 16 198 1.6 0.0 0.00 0.00 0.00 95 1012.2
20260901055021 16 195 1.6 0.0 0.00 0.00 0.00 95 1012.2
20260901054523 16 201 1.6 0.0 0.00 0.00 0.00 95 1012.2
20260901054022 16 234 1.6 0.0 0.00 0.00 0.00 95 1012.1
20260901053522 16 199 1.6 0.0 0.00 0.00 0.00 95 1012.1
20260901053020 16 227 3.2 0.0 0.00 0.00 0.00 95 1012.1
20260901052519 16 206 3.2 0.0 0.00 0.00 0.00 95 1012.1
20260901052019 16 208 3.2 0.0 0.00 0.00 0.00 95 1012.1
20260901051519 16 198 1.6 0.0 0.00 0.00 0.00 95 1012.1
20260901051019 16 211 1.6 0.0 0.00 0.00 0.00 95 1012.2
20260901050519 16 200 1.6 0.0 0.00 0.00 0.00 95 1012.2
20260901050020 16 263 3.2 0.0 0.00 0.00 0.00 95 1012.2
20260901045523 16 217 3.2 0.0 0.00 0.00 0.00 95 1012.2
20260901045018 16 279 1.6 0.0 0.00 0.00 0.00 95 1012.2
20260901044518 16 232 1.6 0.0 0.00 0.00 0.00 95 1012.2
20260901044018 16 199 1.6 0.0 0.00 0.00 0.00 95 1012.1
20260901043520 16 199 1.6 0.0 0.00 0.00 0.00 95 1012.1
20260901043019 16 200 1.6 0.0 0.00 0.00 0.00 95 1012.1
20260901042516 16 219 1.6 0.0 0.00 0.00 0.00 95 1012.0
20260901042016 16 252 1.6 0.0 0.00 0.00 0.00 95 1012.0
20260901041516 16 269 3.2 0.0 0.00 0.00 0.00 94 1012.0
20260901041016 16 232 3.2 0.0 0.00 0.00 0.00 94 1011.7
20260901040516 16 270 3.2 0.0 0.00 0.00 0.00 94 1011.7
20260901040016 16 267 6.4 0.0 0.00 0.00 0.00 94 1011.7
20260901035516 16 273 3.2 0.0 0.00 0.00 0.00 94 1011.6
20260901035015 16 275 1.6 0.0 0.00 0.00 0.00 94 1011.6
20260901034517 16 16 0.0 0.0 0.00 0.00 0.00 94 1011.6
20260901034016 16 15 1.6 0.0 0.00 0.00 0.00 93 1011.1
20260901033514 16 197 1.6 0.0 0.00 0.00 0.00 93 1011.1
20260901033014 16 232 1.6 0.0 0.00 0.00 0.00 93 1011.1
20260901032514 16 187 1.6 0.0 0.00 0.00 0.00 93 1011.0
20260901032014 16 271 3.2 0.0 0.00 0.00 0.00 93 1011.0
20260901031513 16 307 3.2 0.0 0.00 0.00 0.00 92 1011.0
20260901031013 16 318 1.6 0.0 0.00 0.00 0.00 92 1010.9
20260901030514 17 187 3.2 0.0 0.00 0.00 0.00 92 1010.9
20260901030013 17 179 3.2 0.0 0.00 0.00 0.00 92 1010.9
20260901025516 17 219 3.2 0.0 0.00 0.00 0.00 91 1010.7
20260901025013 17 143 4.8 0.0 0.00 0.00 0.00 90 1010.7
20260901024513 16 201 6.4 0.0 0.00 0.00 0.00 90 1010.7
20260901024015 16 209 6.4 0.0 0.00 0.00 0.00 90 1010.6
20260901023511 17 197 4.8 0.0 0.00 0.00 0.00 90 1010.6
20260901023026 17 203 4.8 0.0 0.00 0.00 0.00 90 1010.6
20260901022511 17 210 4.8 0.0 0.00 0.00 0.00 91 1010.7
20260901022012 17 273 4.8 0.0 0.00 0.00 0.00 90 1010.7
20260901021520 17 242 4.8 0.0 0.00 0.00 0.00 89 1010.7
20260901021011 17 245 4.8 0.0 0.00 0.00 0.00 89 1010.8
20260901020511 17 271 3.2 0.0 0.00 0.00 0.00 89 1010.8
20260901020011 17 159 4.8 0.0 0.00 0.00 0.00 88 1010.8
20260901015510 18 176 4.8 0.0 0.00 0.00 0.00 88 1010.7
20260901015010 18 171 4.8 0.0 0.00 0.00 0.00 87 1010.7
20260901014511 18 194 4.8 0.0 0.00 0.00 0.00 86 1010.7
20260901014011 18 178 4.8 0.0 0.00 0.00 0.00 85 1010.8
20260901013513 18 200 4.8 0.0 0.00 0.00 0.00 84 1010.8
20260901013010 19 188 3.2 0.0 0.00 0.00 0.00 84 1010.8
20260901012513 19 199 4.8 0.0 0.00 0.00 0.00 83 1010.8
20260901012013 20 219 6.4 0.0 0.00 0.00 0.00 82 1010.8
20260901011509 20 219 6.4 0.0 0.00 0.00 0.00 81 1010.8
20260901011011 20 159 4.8 0.0 0.00 0.00 0.00 81 1010.9
20260901010509 20 232 4.8 0.0 0.00 0.00 0.00 79 1010.9
20260901010010 20 232 6.4 0.0 0.00 0.00 0.00 80 1010.9
20260901005510 20 148 8.0 0.0 0.00 0.00 0.00 80 1010.9
20260901005009 20 209 9.7 0.0 0.00 0.00 0.00 77 1010.9
20260901004509 21 200 8.0 0.0 0.00 0.00 0.00 76 1010.9
20260901004009 21 175 6.4 0.0 0.00 0.00 0.00 74 1010.8
20260901003510 21 180 8.0 0.0 0.00 0.00 0.00 74 1010.8
20260901003008 21 165 8.0 0.0 0.00 0.00 0.00 70 1010.8
20260901002508 22 206 8.0 0.0 0.00 0.00 0.00 68 1010.9
20260901002009 22 222 8.0 0.0 0.00 0.00 0.00 66 1010.9
20260901001507 22 271 8.0 0.0 0.00 0.00 0.00 69 1010.9
20260901001007 22 216 8.0 0.0 0.00 0.00 0.00 70 1010.7
20260901000508 22 192 6.4 0.0 0.00 0.00 0.00 71 1010.7
20260901000008 22 224 6.4 0.0 0.00 0.00 0.00 74 1010.7
20260831235508 22 212 8.0 0.0 0.00 0.00 0.00 71 1011.0
20260831235008 23 219 6.4 0.0 0.00 0.00 0.00 72 1011.0
20260831234507 23 184 8.0 0.0 0.00 0.00 0.00 71 1011.0
20260831234008 23 200 8.0 0.0 0.00 0.00 0.00 67 1011.0
20260831233507 23 203 6.4 0.0 0.00 0.00 0.00 65 1011.0
20260831233011 23 173 4.8 0.0 0.00 0.00 0.00 66 1011.0
20260831232506 23 234 4.8 0.0 0.00 0.00 0.00 64 1010.8
20260831232006 23 186 4.8 0.0 0.00 0.00 0.00 67 1010.8
20260831231508 23 194 4.8 0.0 0.00 0.00 0.00 66 1010.8
20260831231006 23 197 3.2 0.0 0.00 0.00 0.00 69 1010.9
20260831230505 23 227 3.2 0.0 0.00 0.00 0.00 69 1010.9
20260831230005 23 196 4.8 0.0 0.00 0.00 0.00 71 1010.9
20260831225504 23 202 4.8 0.0 0.00 0.00 0.00 69 1011.0
20260831225004 23 155 4.8 0.0 0.00 0.00 0.00 70 1011.0
20260831224504 23 184 4.8 0.0 0.00 0.00 0.00 71 1011.0
20260831224004 23 224 4.8 0.0 0.00 0.00 0.00 70 1011.1
20260831223503 23 171 4.8 0.0 0.00 0.00 0.00 74 1011.1
20260831223002 23 191 4.8 0.0 0.00 0.00 0.00 72 1011.1
20260831222503 23 217 4.8 0.0 0.00 0.00 0.00 72 1011.3
20260831222002 23 196 6.4 0.0 0.00 0.00 0.00 72 1011.3
20260831221503 23 192 6.4 0.0 0.00 0.00 0.00 72 1011.3
20260831221002 23 211 6.4 0.0 0.00 0.00 0.00 71 1011.4
20260831220504 23 182 6.4 0.0 0.00 0.00 0.00 74 1011.4
20260831220002 23 205 6.4 0.0 0.00 0.00 0.00 73 1011.4
20260831215504 23 240 6.4 0.0 0.00 0.00 0.00 75 1011.7
20260831215002 23 205 6.4 0.0 0.00 0.00 0.00 73 1011.7
20260831214501 23 222 6.4 0.0 0.00 0.00 0.00 73 1011.7
20260831214000 23 175 4.8 0.0 0.00 0.00 0.00 74 1011.7
20260831213600 23 218 4.8 0.0 0.00 0.00 0.00 75 1011.7
20260831213100 23 160 4.8 0.0 0.00 0.00 0.00 77 1011.7
20260831212559 23 202 4.8 0.0 0.00 0.00 0.00 76 1011.8
20260831212059 23 202 6.4 0.0 0.00 0.00 0.00 75 1011.8
20260831211559 23 155 6.4 0.0 0.00 0.00 0.00 74 1011.8
20260831211057 22 207 6.4 0.0 0.00 0.00 0.00 76 1011.9
20260831210557 22 207 4.8 0.0 0.00 0.00 0.00 74 1011.9
20260831210058 22 209 6.4 0.0 0.00 0.00 0.00 74 1011.9
20260831205557 22 219 6.4 0.0 0.00 0.00 0.00 76 1011.9
20260831205057 22 196 6.4 0.0 0.00 0.00 0.00 77 1011.9
20260831204557 22 205 4.8 0.0 0.00 0.00 0.00 79 1011.9
20260831204100 22 207 6.4 0.0 0.00 0.00 0.00 78 1012.0